MXD177 WMKK-WADD

Flight info

Callsign MXD177
Flight time N/A
Altitude 33000
Route MITOS1D MITOS M630 BOBAG P501 ANITO B470 PKP/N0468F350 L895 MIMIX L511 SBR W33 MOVMO
Aircraft B738/M-SDE2E3FGHIRWXY/LB1

Departure

Time 2026-05-01 08:35
Airport Kuala Lumpur International Airport (WMKK)

Arrival

Time N/A
Airport Denpasar I Gusti Ngurah Rai International Airport (WADD)
Time Latitude Longitude Altitude Speed Heading
2026-05-01 08:20 2.75436 101.70901 72 ft 0 kts 326°
2026-05-01 08:27 2.75435 101.70902 72 ft 2 kts 326°
2026-05-01 08:27 2.75421 101.70911 68 ft 2 kts 326°
2026-05-01 08:28 2.75407 101.70920 64 ft 2 kts 327°
2026-05-01 08:28 2.75393 101.70929 67 ft 2 kts 329°
2026-05-01 08:28 2.75379 101.70937 62 ft 2 kts 336°
2026-05-01 08:28 2.75363 101.70940 63 ft 2 kts 40°
2026-05-01 08:29 2.75358 101.70935 64 ft 0 kts 56°
2026-05-01 08:31 2.75359 101.70936 64 ft 2 kts 56°
2026-05-01 08:31 2.75382 101.70971 65 ft 7 kts 56°
2026-05-01 08:32 2.75420 101.71028 65 ft 11 kts 55°
2026-05-01 08:32 2.75462 101.71090 67 ft 11 kts 57°
2026-05-01 08:32 2.75517 101.71173 67 ft 16 kts 56°
2026-05-01 08:32 2.75576 101.71262 72 ft 15 kts 56°
2026-05-01 08:33 2.75634 101.71349 66 ft 14 kts 56°
2026-05-01 08:33 2.75651 101.71420 68 ft 11 kts 109°
2026-05-01 08:33 2.75590 101.71471 66 ft 13 kts 147°
2026-05-01 08:33 2.75557 101.71537 70 ft 12 kts 66°
2026-05-01 08:34 2.75602 101.71604 72 ft 12 kts 55°
2026-05-01 08:34 2.75650 101.71654 72 ft 9 kts
2026-05-01 08:34 2.75769 101.71582 73 ft 50 kts 326°
2026-05-01 08:34 2.76274 101.71245 66 ft 122 kts 325°
2026-05-01 08:35 2.77133 101.70667 145 ft 172 kts 326°
2026-05-01 08:35 2.78151 101.69931 701 ft 190 kts 322°
2026-05-01 08:35 2.79228 101.69061 1324 ft 204 kts 317°
2026-05-01 08:35 2.80230 101.68128 2445 ft 186 kts 314°
2026-05-01 08:36 2.81101 101.67213 3085 ft 200 kts 314°
2026-05-01 08:36 2.82411 101.66459 2997 ft 230 kts 353°
2026-05-01 08:36 2.84036 101.66674 3267 ft 244 kts 27°
2026-05-01 08:36 2.85372 101.67751 3527 ft 258 kts 57°
2026-05-01 08:37 2.85969 101.69449 4006 ft 265 kts 88°
2026-05-01 08:37 2.85627 101.71222 4857 ft 266 kts 114°
2026-05-01 08:37 2.84693 101.72824 5704 ft 269 kts 123°
2026-05-01 08:37 2.83471 101.74512 6451 ft 276 kts 125°